Location: Newark
(13.8117°N, 3.6025°W)
Time: 02:34:26
(UTC+00:00)

A-11 Canister half - Visible Passes

Search period start: 25 August 2019 00:00
Search period end: 04 September 2019 00:00
Orbit: 1514 x 1686 km, 47.2° (Epoch: 24 August)

Date Brightness Start Highest point End Pass type
(mag) Time Alt. Az. Time Alt. Az. Time Alt. Az.
25 Aug 11.1 23:15:55 10° NNW 23:17:21 14° N 23:17:21 14° N visible
26 Aug 11.0 22:53:12 10° NNW 22:55:10 15° N 22:55:10 15° N visible
27 Aug 11.0 22:30:29 10° N 22:33:02 16° N 22:33:02 16° N visible
28 Aug 10.9 22:07:48 10° N 22:10:57 16° N 22:10:57 16° N visible
29 Aug 10.8 21:45:08 10° N 21:48:54 17° NNE 21:48:54 17° NNE visible
30 Aug 10.7 21:22:31 10° N 21:26:55 16° NNE 21:26:55 16° NNE visible
30 Aug 11.2 23:24:38 10° NW 23:25:05 12° NW 23:25:05 12° NW visible
31 Aug 10.7 20:59:56 10° N 21:04:57 15° NNE 21:04:57 15° NNE visible
31 Aug 11.1 23:01:46 10° NNW 23:03:07 15° NNW 23:03:07 15° NNW visible
01 Sep 10.7 20:37:23 10° N 20:42:02 14° NNE 20:43:02 14° NE visible
01 Sep 10.8 22:38:54 10° NNW 22:41:13 19° NNW 22:41:13 19° NNW visible
02 Sep 10.7 20:14:56 10° N 20:18:55 13° NNE 20:21:10 12° NE visible
02 Sep 10.6 22:16:04 10° NNW 22:19:20 24° NNW 22:19:20 24° NNW visible
03 Sep 10.8 19:52:36 10° N 19:55:46 12° NNE 19:58:58 10° NE visible
03 Sep 10.4 21:53:14 10° NNW 21:57:32 28° NNW 21:57:32 28° NNW visible
